Content
SEND FEEDBACK

Daily
Averages
Monthly
Summary
United Kingdom

MEDWAY, ENGLAND


Home > Europe > United Kingdom > England
Elevation: 285 feet     Latitude: 51 54N     Longitude: 000 27E

WEATHER
 
SELECT A DAY
Number of Records: 296,014;   Date Range: 7/1/96 - 7/31/14
 
SHARE

PRINT THIS DATA

[ ← Previous Day ]
WEATHER ALMANAC - JANUARY 20, 2014
[ Next Day → ]
[ °C ]   °F
Weather ElementAverageHighLow
Temperature35.9 °F42.8 °F (1:20 pm)30.2 °F (9:20 pm)
Dewpoint33.5 °F39.2 °F (12:50 pm)28.4 °F (9:20 pm)
Humidity91.2 %100 % (10:20 pm)87 % (1:20 am)
Barometer29.75 in29.86 in (7:20 pm)29.59 in (12:50 am)
Wind Speed3 mph4.6 mph (2:20 am)
Weather ElementAverage
Visibility3.4 mi
Wind DirectionS (184.3 °)

Weather ElementTotal
Precipitation---
Heating Degree Days28.5 (Base 65)
Averaged from 47 records on January 20, 2014
WEATHER CONDITIONS BREAKOUT
WIND DIRECTION BREAKOUT
WEATHER BY HOUR - JANUARY 20, 2014
[ °C ]   °F
Local TimeTemperatureDewpointHumidityBarometerVisibilityWind DirectionWind SpeedGust SpeedPrecipitationEventsConditions
12:50 AM35.6 °F33.8 °F93 %29.59 inSSE (150°)2.3 mphClear
1:20 AM35.6 °F32.0 °F87 %29.62 inSSE (150°)3.5 mphClear
1:50 AM37.4 °F33.8 °F87 %29.62 inSSE (160°)2.3 mphClear
2:20 AM33.8 °F32.0 °F93 %29.62 inESE (120°)4.6 mphClear
2:50 AM35.6 °F32.0 °F87 %29.62 inSE (130°)2.3 mphClear
3:20 AM33.8 °F30.2 °F87 %29.62 inSE (140°)3.5 mphClear
3:50 AM35.6 °F32.0 °F87 %29.62 inSSE (160°)3.5 mphClear
4:20 AM33.8 °F32.0 °F93 %29.65 inSouth (170°)3.5 mphClear
4:50 AM33.8 °F30.2 °F87 %29.65 inSE (130°)3.5 mphClear
5:20 AM33.8 °F32.0 °F93 %29.65 in5.0 miSE (140°)3.5 mph
5:50 AM32.0 °F30.2 °F93 %29.65 in1.1 miSSE (150°)3.5 mphHaze
6:20 AM32.0 °F30.2 °F93 %29.68 in5.0 miSSE (160°)2.3 mph
6:50 AM33.8 °F32.0 °F93 %29.68 in5.0 miVariable3.5 mph
7:20 AM35.6 °F33.8 °F93 %29.68 in4.3 miSSE (150°)4.6 mphFog
7:50 AM35.6 °F33.8 °F93 %29.71 in6.2 miVariable3.5 mphFogShallow Fog
8:20 AM33.8 °F32.0 °F93 %29.71 in6.2 miVariable2.3 mphFogShallow Fog
8:50 AM35.6 °F32.0 °F87 %29.74 in6.2 miVariable3.5 mphFogPatches of Fog
9:20 AM33.8 °F32.0 °F93 %29.74 in6.2 miSouth (180°)3.5 mphFog
9:50 AM33.8 °F32.0 °F93 %29.74 in6.2 miSW (230°)2.3 mphFog
10:20 AM35.6 °F33.8 °F93 %29.77 in6.2 miWSW (240°)2.3 mphFog
10:50 AM35.6 °F33.8 °F93 %29.77 in6.2 miWNW (300°)2.3 mphFog
11:20 AM39.2 °F37.4 °F93 %29.77 in6.2 miNW (310°)2.3 mphFog
11:50 AM39.2 °F37.4 °F93 %29.77 in6.2 miWNW (290°)3.5 mphFogPatches of Fog
12:20 PM41.0 °F37.4 °F87 %29.77 in5.6 miWest (280°)3.5 mph
12:50 PM41.0 °F39.2 °F93 %29.77 in5.6 miNW (310°)3.5 mph
1:20 PM42.8 °F39.2 °F87 %29.77 inVariable2.3 mphClear
1:50 PM42.8 °F39.2 °F87 %29.77 inVariable2.3 mphClear
2:20 PM42.8 °F39.2 °F87 %29.77 inNorth (10°)4.6 mphClear
2:50 PM42.8 °F39.2 °F87 %29.80 inNorth (350°)3.5 mphClear
3:20 PM42.8 °F39.2 °F87 %29.80 inNNW (330°)3.5 mphClear
3:50 PM41.0 °F37.4 °F87 %29.80 inNorth (350°)3.5 mphClear
4:20 PM41.0 °F37.4 °F87 %29.80 inNW (310°)2.3 mphClear
4:50 PM39.2 °F37.4 °F93 %29.83 inWest (280°)3.5 mphClear
5:20 PM39.2 °F37.4 °F93 %29.83 inWest (270°)2.3 mphClear
5:50 PM37.4 °F35.6 °F93 %29.83 in5.0 miVariable2.3 mph
6:20 PM37.4 °F35.6 °F93 %29.83 in1.9 miWest (280°)2.3 mphHaze
6:50 PM35.6 °F33.8 °F93 %29.83 in1.2 miCalmFogShallow Fog
7:20 PM33.8 °F32.0 °F93 %29.86 in0.2 miVariable2.3 mphFogPatches of Fog
7:50 PM33.8 °F32.0 °F93 %29.86 in0.6 miNNW (330°)3.5 mphFogPatches of Fog
8:20 PM33.8 °F32.0 °F93 %29.86 in0.7 miNorth (350°)3.5 mphFogPatches of Fog
8:50 PM32.0 °F30.2 °F93 %29.86 in1.2 miNNW (340°)3.5 mphFogPatches of Fog
9:20 PM30.2 °F28.4 °F93 %29.86 in1.2 miNNW (330°)3.5 mphFogPatches of Fog
9:50 PM30.2 °F28.4 °F93 %29.86 in0.1 miWest (260°)3.5 mphFogLight Freezing Fog
10:20 PM30.2 °F30.2 °F100 %29.86 in0.1 miCalmFogLight Freezing Fog
10:50 PM30.2 °F28.4 °F93 %29.86 in0.1 miWSW (250°)3.5 mphFogLight Freezing Fog
11:20 PM30.2 °F28.4 °F93 %29.86 in0.1 miWest (280°)2.3 mphFogLight Freezing Fog
11:50 PM30.2 °F28.4 °F93 %29.86 in0.1 miWNW (290°)3.5 mphFogLight Freezing Fog
Hourly data recorded from EGSS, located miles away from Medway, England







STORIES FROM OUR PARTNERS